Back to catalog

SL-12 DEB

LostHEO
NORAD 28582·DEBRIS·🇷🇺 Russia

Launched Jul 30, 1992 from Baikonur Cosmodrome

Loading…

Next Passes (next 24 hours)

TLE

StaleSource: Space-Track

Epoch: May 25, 2026, 01:13 UTC

1 28582U 92047R   26145.05094318 -.00000011  00000-0  00000-0 0  9998
2 28582  61.4851 151.8690 3478058 311.7190  23.3492  6.53581661505430

Track SL-12 DEB in real time with AllMySat

Download on the App Store